Weather History for Wilmington, NC

Change the Weather History Date:

Wednesday, April 24, 2013

  Actual Average Record
Temperature  
Mean Temperature 61 °F 65 °F  
Max Temperature 75 °F 76 °F 93 °F (1980)
Min Temperature 47 °F 54 °F 37 °F (1982)
Degree Days  
Heating Degree Days 4 3  
Month to date heating degree days 123 116  
Since 1 July heating degree days 2400 2368  
Cooling Degree Days 0 3  
Month to date cooling degree days 43 47  
Year to date cooling degree days 57 68  
Growing Degree Days 10 (Base 50)    
Moisture  
Dew Point 54 °F    
Average Humidity 77    
Maximum Humidity 100    
Minimum Humidity 53    
Precipitation  
Precipitation 0.00 in 0.10 in 1.08 in (1977)
Month to date precipitation 4.29 2.26  
Year to date precipitation 14.00 13.85  
Snow  
Snow 0.00 in 0.00 in - ()
Month to date snowfall 0.0 0.0  
Since 1 July snowfall T 1.7  
Snow Depth 0.00 in    
Sea Level Pressure  
Sea Level Pressure 30.13 in    
Wind  
Wind Speed 8 mph (SSW)    
Max Wind Speed 22 mph    
Max Gust Speed 29 mph    
Visibility 10 miles    
Events      
T = Trace of Precipitation, MM = Missing Value Source: NWS Daily Summary

Daily Weather History Graph

Daily Weather History Graph

Search for Another Location

Airport:

Trip Planner

Search our weather history database for the weather conditions in past years. The results will help you decide how hot, cold, wet, or windy it might be!

Date:

Astronomy

Apr. 24, 2013 Rise Set
Actual Time 6:29 AM EDT 7:50 PM EDT
Civil Twilight 6:03 AM EDT 8:16 PM EDT
Nautical Twilight 5:31 AM EDT 8:48 PM EDT
Astronomical Twilight 4:58 AM EDT 9:21 PM EDT
Moon 6:53 PM EDT (4/24) 5:28 AM EDT (4/24)
Length of Visible Light 14h 13m
Length of Day
13h 21m
Waxing Gibbous, 98% of the Moon is Illuminated
Apr 24
Waxing Gibbous
Apr 25
Full
May 2
Last Quarter
May 9
New
May 18
First Quarter

Hourly Weather History & Observations

Time (EDT) Temp. Dew Point Humidity Pressure Visibility Wind Dir Wind Speed Gust Speed Precip Events Conditions
12:53 AM 51.1 °F 48.9 °F 92% 30.17 in 9.0 mi Calm Calm - N/A   Clear
1:53 AM 50.0 °F 48.0 °F 93% 30.15 in 10.0 mi Calm Calm - N/A   Clear
2:53 AM 48.9 °F 48.0 °F 97% 30.15 in 10.0 mi Calm Calm - N/A   Clear
3:53 AM 48.9 °F 46.9 °F 93% 30.15 in 10.0 mi Calm Calm - N/A   Clear
4:53 AM 48.0 °F 46.0 °F 93% 30.15 in 10.0 mi Calm Calm - N/A   Clear
5:53 AM 48.2 °F 46.4 °F 93% 30.17 in 10.0 mi Calm Calm - N/A   Clear
6:53 AM 46.9 °F 46.0 °F 97% 30.18 in 10.0 mi Calm Calm - N/A   Clear
7:53 AM 54.0 °F 52.0 °F 93% 30.19 in 9.0 mi Calm Calm - N/A   Clear
8:53 AM 61.0 °F 55.9 °F 83% 30.19 in 10.0 mi Calm Calm - N/A   Clear
9:53 AM 66.0 °F 54.0 °F 65% 30.19 in - SSE 5.8 mph - N/A   Clear
10:53 AM 69.1 °F 55.0 °F 61% 30.18 in 10.0 mi South 8.1 mph - N/A   Partly Cloudy
11:53 AM 68.0 °F 55.9 °F 65% 30.17 in 10.0 mi SSE 11.5 mph 18.4 mph N/A   Mostly Cloudy
12:53 PM 70.0 °F 57.0 °F 63% 30.14 in 10.0 mi South 12.7 mph 17.3 mph N/A   Mostly Cloudy
1:53 PM 73.0 °F 55.9 °F 55% 30.12 in 10.0 mi South 15.0 mph 20.7 mph N/A   Partly Cloudy
2:53 PM 73.9 °F 57.0 °F 55% 30.12 in 10.0 mi SW 15.0 mph 21.9 mph N/A   Mostly Cloudy
3:53 PM 73.9 °F 55.9 °F 53% 30.11 in 10.0 mi SW 17.3 mph 24.2 mph N/A   Scattered Clouds
4:53 PM 73.9 °F 55.9 °F 53% 30.09 in 10.0 mi SSW 17.3 mph 25.3 mph N/A   Partly Cloudy
5:53 PM 72.0 °F 57.0 °F 59% 30.09 in 10.0 mi SW 15.0 mph 24.2 mph N/A   Clear
6:53 PM 70.0 °F 57.0 °F 63% 30.08 in 10.0 mi SSW 11.5 mph - N/A   Clear
7:53 PM 66.9 °F 57.9 °F 73% 30.07 in 10.0 mi South 8.1 mph - N/A   Clear
8:53 PM 66.0 °F 59.0 °F 78% 30.07 in 10.0 mi South 10.4 mph - N/A   Clear
9:53 PM 66.0 °F 59.0 °F 78% 30.11 in 10.0 mi SSW 10.4 mph - N/A   Clear
10:53 PM 66.0 °F 59.0 °F 78% 30.11 in 10.0 mi SSW 11.5 mph - N/A   Clear
11:53 PM 66.9 °F 59.0 °F 76% 30.10 in 10.0 mi SSW 10.4 mph - N/A   Clear